Location: Arcusa
(42.3167°N, 0.0833°W)
Time: 22:18:45
(UTC+00:00)

Lacrosse 5 - Pass Details

Date: 25 January 2020
Orbit: 717 x 722 km, 57.0° (Epoch: 06 February)

Event Time Altitude Azimuth Distance (km) Brightness Sun altitude
Exits shadow 04:22:37 20° 146° (SE) 1,632 3.9 -32.9°
Maximum altitude 04:24:05 23° 122° (ESE) 1,519 4.0 -32.6°
Drops below altitude 10° 04:27:58 10° 71° (ENE) 2,204 5.2 -31.9°
Sets 04:30:47 0° 57° (ENE) 3,128 6.0 -31.3°
